Wind_Speed
25 24 23 22 23 22 22 22 22 24 24 26 27 27 28 29 29 30 30 30 31 32 32 31 32 33 34 34 34 35 34 34 33 32 32 32 32 32 34 34 34 35 35
27 26 26 25 25 24 24 24 25 26 28 28 30 30 31 33 33 32 32 32 32 32 32 31 32 33 31 33 34 33 32 32 32 31 30 31 32 33 35 36 36 37 39
28 28 28 29 28 27 26 27 27 29 30 30 31 31 32 32 34 35 36 35 34 35 34 32 32 32 32 32 30 30 31 31 32 32 32 32 33 34 36 38 39 40 42
28 29 29 30 29 29 29 29 29 31 32 32 31 33 34 34 36 36 36 36 35 35 35 35 33 33 32 32 32 34 34 34 34 34 35 36 37 39 40 40 42 44 45
28 28 29 29 30 30 30 31 31 32 32 30 31 32 34 35 36 36 36 36 36 36 36 36 37 35 34 34 35 36 35 35 36 37 38 40 41 42 43 44 45 46 48
28 28 29 29 30 31 32 32 32 32 31 31 32 33 34 35 36 35 34 35 37 38 38 39 39 37 37 37 37 37 38 39 39 40 41 42 44 44 46 48 50 51 52
27 28 28 30 31 31 32 32 33 33 33 34 35 36 36 37 37 37 37 37 38 38 39 40 40 39 39 40 40 40 40 41 41 42 43 45 47 49 51 52 54 55 57
26 27 28 30 31 32 33 33 34 34 35 35 36 37 37 38 39 39 39 40 40 40 41 41 40 40 41 42 43 43 44 44 45 46 47 49 51 52 54 56 58 60 61
27 28 29 30 32 33 34 34 34 35 36 36 37 38 39 39 40 41 42 42 42 42 42 42 42 43 44 44 46 46 47 48 48 49 51 52 54 56 58 60 62 63 65
28 29 31 32 33 34 35 35 36 36 37 38 38 39 40 41 42 42 42 43 44 43 44 45 46 46 47 47 47 48 49 51 51 53 54 56 57 59 61 63 64 65 66
30 31 31 32 33 34 35 36 37 37 38 39 39 39 40 41 42 43 44 45 45 46 47 46 46 47 47 48 49 50 52 53 53 55 56 58 59 61 62 62 63 63 63
31 31 32 34 35 36 36 37 37 38 38 39 39 39 40 41 42 43 43 44 45 45 45 46 46 46 48 49 50 52 52 54 55 56 57 58 59 59 59 59 59 58 58
31 32 33 34 35 35 36 36 36 37 37 38 38 39 40 41 42 43 44 44 44 44 44 44 45 47 48 49 51 52 53 54 55 56 56 56 56 56 56 55 54 53 52
31 31 32 33 34 34 35 35 35 36 37 37 37 39 40 40 41 42 42 42 42 43 43 44 45 46 47 49 50 52 53 53 54 54 54 54 53 52 51 49 48 47 46
30 31 31 31 32 33 34 35 35 35 35 36 37 38 39 39 39 39 39 40 41 42 42 43 44 45 46 48 49 49 50 51 51 51 50 48 46 45 43 42 41 40 39
28 29 30 31 30 31 32 32 33 33 34 35 36 36 36 36 36 37 38 39 40 40 41 42 43 44 45 46 46 47 47 47 46 44 42 40 39 38 36 34 33 32 32
27 27 28 28 28 29 29 30 30 30 30 31 32 33 33 33 34 34 35 37 37 38 39 40 41 42 42 43 43 42 41 40 39 37 36 34 33 31 29 27 26 25 24
24 24 25 25 25 26 27 27 27 28 28 29 30 30 30 31 32 33 34 35 35 36 37 37 38 39 39 39 38 37 36 35 33 32 31 29 27 25 23 22 21 20 19
22 22 22 23 24 24 24 25 26 26 27 28 28 29 30 31 32 32 32 32 32 33 34 35 35 35 35 34 34 33 32 30 28 27 25 22 21 19 17 16 15 15 15
21 21 22 22 23 23 23 24 24 25 26 27 27 28 29 29 29 29 29 29 29 30 31 31 31 31 31 30 29 28 26 24 22 20 18 17 16 15 14 13 13 14 15
20 20 21 21 21 22 22 23 24 24 25 26 26 27 27 27 26 26 26 26 27 27 27 27 27 27 26 24 23 22 20 19 17 16 14 14 13 13 12 13 14 14 15
19 19 20 20 20 21 21 21 22 23 23 24 24 24 24 24 24 24 24 23 23 23 23 23 22 21 20 19 18 17 16 14 13 12 12 12 12 13 13 14 15 15 16
18 18 19 19 19 20 20 20 20 20 21 22 22 22 22 21 21 21 21 20 20 20 20 19 18 17 17 16 15 14 13 11 11 11 11 11 12 13 14 15 15 16 17
15 15 15 16 17 18 18 18 19 19 20 20 20 20 20 19 19 19 18 18 17 16 16 15 15 14 13 13 12 11 10 10 10 10 11 11 12 13 14 15 16 16 17
11 12 13 14 15 16 17 17 18 18 18 18 17 17 17 17 17 16 15 15 14 14 13 13 12 11 10 10 9 9 8 9 9 10 11 11 12 13 14 15 16 16 17
9 10 12 13 14 15 15 15 15 15 15 15 15 15 15 15 14 14 13 12 12 11 11 10 9 9 8 8 7 7 8 8 9 10 10 11 12 13 14 15 16 16 16
Wind_Direction
238 243 242 240 241 242 242 240 239 243 245 245 244 246 249 252 254 256 258 261 264 267 269 272 273 273 274 275 277 277 277 276 276 278 279 280 280 279 280 278 276 276 276
239 242 243 240 240 244 244 244 244 246 248 248 248 249 252 255 257 260 259 263 265 270 273 278 280 278 282 282 281 282 280 279 280 282 283 282 283 283 281 279 278 278 278
240 241 242 242 241 244 245 247 249 250 250 251 253 252 253 259 264 263 266 268 271 275 283 285 286 287 288 288 285 285 283 285 285 283 282 283 285 284 283 281 280 280 278
240 241 243 244 244 246 248 250 252 255 256 256 258 259 260 263 266 269 272 274 276 281 286 287 290 290 289 290 289 289 289 290 289 286 284 284 284 284 284 283 281 279 277
241 242 243 245 246 249 251 255 259 261 264 265 266 266 267 269 273 274 277 279 282 286 289 290 291 291 291 290 290 290 291 290 289 287 286 284 284 285 285 283 282 280 278
243 244 246 246 247 249 253 258 262 264 266 266 267 270 272 274 276 278 283 285 287 289 289 290 290 290 291 291 292 291 291 290 289 287 286 285 284 284 284 283 282 281 280
246 246 247 248 249 251 255 258 261 263 267 268 270 274 277 278 281 285 288 290 289 290 289 290 290 290 291 293 292 292 291 290 288 288 287 286 285 284 284 283 282 281 280
248 249 249 250 253 256 258 261 263 267 270 272 275 279 281 283 284 286 287 289 289 291 291 291 290 290 290 291 292 292 291 290 289 288 288 287 286 285 285 284 283 281 280
249 251 251 253 255 259 262 265 269 273 274 275 276 278 280 282 283 285 286 287 289 289 289 290 290 289 290 291 291 290 289 289 289 288 288 287 286 286 285 284 283 282 281
248 251 254 256 258 262 266 269 271 274 276 277 278 278 279 280 281 283 286 288 288 287 287 287 288 288 289 290 290 291 290 289 289 289 289 288 287 286 286 284 283 282 281
254 256 259 260 263 266 269 271 272 275 277 278 278 278 278 279 281 282 284 285 285 284 285 286 287 288 288 289 290 291 291 290 290 291 291 290 289 288 286 285 284 284 283
258 261 262 264 267 270 272 273 274 275 276 276 275 276 276 278 278 280 281 283 283 284 283 284 286 287 288 290 291 292 293 293 293 293 292 292 291 290 289 288 287 286 286
264 266 267 268 270 271 273 274 275 275 275 274 275 276 276 277 278 279 280 281 282 283 284 285 287 289 291 292 294 295 296 296 296 295 295 294 293 292 291 290 289 289 288
269 270 271 272 273 273 273 273 275 274 275 274 274 276 276 276 278 279 280 282 283 285 285 288 291 293 294 296 297 298 298 298 297 297 296 296 296 295 294 293 291 290 289
270 271 272 272 272 271 271 271 271 272 274 274 276 277 277 277 278 280 281 283 284 287 289 292 294 296 297 298 300 300 300 300 299 299 299 299 299 298 298 297 295 294 293
271 271 270 269 270 269 268 270 270 272 273 275 275 275 276 278 280 281 282 284 287 290 292 294 296 298 299 301 301 302 302 302 303 303 302 302 303 303 302 301 299 298 296
269 267 267 266 265 266 269 271 272 274 275 276 277 278 280 281 283 285 286 289 291 293 295 297 299 301 302 303 304 305 306 306 306 306 306 306 306 306 306 306 306 304 303
264 264 266 268 269 271 273 272 272 276 278 280 281 282 283 285 286 288 289 291 294 296 298 299 301 303 305 306 307 308 309 310 310 310 310 311 311 312 313 313 312 311 312
267 267 268 269 270 270 272 274 276 278 281 283 285 285 285 287 289 290 292 295 297 298 300 302 304 306 307 308 309 310 311 313 314 315 317 318 320 323 324 325 326 328 328
271 274 276 276 276 276 277 280 283 284 284 285 287 288 289 290 291 293 295 297 299 301 303 306 307 309 310 311 313 315 316 319 322 324 327 331 335 338 340 343 345 346 344
274 277 279 280 282 283 284 286 286 287 287 288 289 291 291 292 292 294 296 298 301 303 306 308 310 312 314 316 318 321 324 327 331 335 340 346 351 354 356 357 357 356 354
279 281 281 285 288 288 288 289 290 292 293 293 294 293 293 293 294 296 298 299 302 305 307 310 313 317 319 321 325 329 333 337 344 350 356 1 6 7 7 5 4 4 4
281 283 283 284 287 290 292 294 296 297 298 298 296 295 294 295 297 298 299 301 304 306 309 312 316 320 323 327 332 338 344 350 355 360 5 10 11 11 12 12 12 12 10
281 283 286 289 292 294 295 296 299 302 302 300 298 297 297 297 297 297 298 301 304 308 311 315 319 323 327 332 338 346 353 360 5 10 12 14 13 12 13 14 13 11 7
287 290 296 300 301 301 301 303 304 305 306 306 305 304 302 301 298 297 297 300 304 309 313 317 322 326 332 339 348 359 7 11 14 15 15 14 13 13 13 12 11 10 8
303 304 306 307 306 307 307 309 309 310 312 311 310 309 307 305 303 300 299 299 304 310 316 320 326 333 338 346 356 6 12 14 15 15 15 12 13 13 12 11 11 9 9
Height
5856 5859 5861 5863 5864 5865 5866 5867 5868 5868 5869 5869 5869 5868 5868 5868 5867 5867 5866 5865 5865 5864 5863 5862 5861 5859 5857 5855 5854 5853 5852 5851 5850 5849 5847 5846 5844 5843 5841 5840 5838 5837 5835
5852 5855 5856 5858 5860 5861 5862 5863 5863 5864 5864 5864 5864 5863 5863 5862 5861 5860 5859 5859 5858 5857 5857 5856 5854 5852 5850 5849 5849 5847 5844 5844 5842 5840 5839 5838 5837 5835 5833 5832 5829 5828 5826
5847 5850 5852 5853 5855 5856 5857 5858 5858 5859 5859 5858 5858 5857 5857 5857 5856 5855 5854 5852 5851 5851 5850 5849 5847 5845 5844 5842 5841 5839 5837 5836 5834 5832 5831 5830 5828 5826 5825 5823 5820 5818 5816
5842 5844 5846 5848 5849 5851 5852 5852 5853 5853 5853 5852 5852 5852 5851 5850 5850 5848 5846 5845 5844 5843 5842 5841 5840 5838 5836 5834 5832 5831 5829 5827 5825 5823 5822 5820 5819 5816 5814 5812 5810 5807 5805
5836 5838 5841 5843 5845 5846 5847 5847 5848 5848 5847 5846 5846 5845 5844 5843 5841 5840 5839 5838 5837 5836 5835 5834 5833 5831 5828 5826 5825 5822 5820 5818 5816 5815 5813 5811 5808 5806 5803 5800 5798 5795 5792
5831 5833 5835 5837 5839 5841 5841 5842 5842 5842 5841 5840 5839 5838 5837 5835 5833 5831 5831 5830 5829 5828 5827 5825 5823 5822 5820 5818 5816 5814 5812 5809 5807 5805 5803 5800 5797 5794 5791 5788 5785 5782 5778
5826 5828 5830 5831 5833 5835 5836 5836 5836 5836 5835 5834 5833 5831 5830 5828 5826 5825 5824 5823 5822 5820 5819 5817 5814 5813 5811 5808 5807 5804 5802 5799 5797 5794 5791 5788 5785 5782 5778 5775 5771 5767 5762
5820 5822 5824 5825 5827 5828 5829 5829 5829 5829 5828 5827 5826 5825 5823 5822 5820 5818 5817 5815 5814 5812 5810 5808 5805 5803 5801 5799 5796 5794 5791 5788 5785 5782 5779 5775 5772 5768 5763 5759 5755 5750 5745
5815 5816 5817 5819 5820 5821 5822 5822 5822 5821 5820 5820 5819 5817 5816 5814 5812 5811 5809 5807 5805 5803 5800 5798 5796 5793 5791 5788 5785 5782 5779 5776 5773 5769 5766 5762 5757 5753 5748 5743 5737 5733 5727
5809 5810 5811 5812 5813 5814 5814 5814 5813 5813 5812 5811 5810 5809 5807 5806 5804 5802 5800 5797 5795 5793 5790 5788 5785 5783 5780 5777 5773 5770 5766 5763 5759 5755 5751 5746 5741 5736 5730 5725 5719 5713 5707
5802 5803 5804 5805 5806 5806 5806 5805 5805 5804 5803 5802 5801 5799 5798 5796 5794 5792 5790 5788 5786 5783 5780 5778 5775 5772 5768 5765 5761 5757 5753 5749 5745 5740 5735 5730 5724 5718 5712 5706 5700 5694 5688
5795 5796 5797 5797 5797 5797 5797 5796 5795 5795 5793 5792 5791 5789 5788 5786 5785 5782 5780 5778 5776 5773 5769 5767 5764 5760 5756 5752 5748 5744 5739 5735 5730 5724 5718 5713 5706 5700 5693 5687 5681 5675 5670
5787 5788 5788 5788 5788 5788 5787 5787 5786 5785 5783 5782 5781 5779 5778 5776 5774 5772 5770 5768 5765 5762 5759 5756 5752 5748 5744 5740 5735 5730 5725 5720 5714 5708 5701 5695 5689 5682 5676 5670 5664 5659 5654
5779 5779 5779 5779 5779 5778 5778 5777 5776 5775 5774 5772 5771 5769 5768 5766 5764 5762 5759 5757 5754 5751 5748 5744 5741 5736 5732 5727 5722 5717 5711 5705 5698 5692 5685 5679 5672 5666 5660 5654 5649 5644 5639
5771 5771 5770 5770 5769 5769 5768 5767 5766 5765 5764 5763 5761 5760 5758 5756 5754 5752 5749 5747 5744 5741 5737 5733 5729 5725 5720 5715 5709 5703 5697 5691 5684 5677 5671 5665 5658 5652 5646 5641 5636 5631 5626
5762 5762 5761 5760 5760 5759 5759 5758 5757 5756 5754 5753 5752 5750 5748 5746 5744 5742 5739 5737 5734 5730 5727 5723 5718 5714 5709 5703 5698 5691 5685 5678 5671 5665 5659 5653 5647 5641 5636 5631 5626 5621 5617
5754 5753 5753 5752 5751 5750 5749 5748 5747 5746 5745 5744 5742 5740 5739 5737 5734 5732 5730 5727 5724 5721 5717 5713 5708 5703 5698 5693 5687 5680 5674 5667 5661 5655 5649 5643 5638 5632 5627 5623 5619 5615 5611
5746 5745 5744 5743 5743 5742 5741 5740 5739 5738 5737 5735 5734 5732 5730 5728 5726 5723 5721 5718 5715 5711 5707 5703 5699 5694 5689 5683 5677 5671 5665 5659 5653 5647 5641 5636 5631 5626 5621 5617 5614 5610 5606
5739 5738 5737 5736 5735 5734 5734 5733 5732 5730 5729 5728 5726 5724 5722 5720 5717 5715 5712 5709 5706 5702 5699 5694 5690 5685 5680 5674 5669 5663 5657 5652 5646 5640 5635 5631 5626 5622 5617 5614 5610 5607 5604
5733 5732 5731 5730 5729 5728 5727 5726 5725 5723 5722 5720 5718 5716 5714 5712 5709 5706 5703 5700 5697 5694 5690 5686 5682 5677 5672 5667 5661 5656 5651 5646 5641 5636 5632 5627 5623 5619 5616 5612 5609 5605 5602
5727 5726 5725 5724 5723 5722 5721 5719 5718 5716 5715 5713 5711 5709 5706 5704 5701 5699 5696 5693 5690 5687 5683 5679 5675 5670 5666 5661 5656 5651 5647 5642 5638 5634 5630 5626 5622 5619 5615 5612 5609 5605 5602
5722 5721 5720 5718 5717 5716 5715 5713 5711 5709 5708 5706 5704 5701 5699 5697 5694 5692 5689 5686 5683 5680 5677 5673 5669 5665 5661 5657 5652 5648 5644 5640 5636 5633 5629 5626 5623 5619 5616 5613 5609 5606 5602
5717 5716 5715 5713 5712 5711 5709 5707 5705 5703 5701 5699 5697 5695 5692 5690 5687 5685 5683 5680 5677 5675 5671 5668 5665 5661 5657 5654 5650 5646 5643 5639 5636 5633 5630 5627 5623 5620 5617 5613 5610 5606 5602
5713 5711 5710 5709 5707 5706 5704 5702 5700 5698 5696 5693 5691 5688 5686 5684 5681 5679 5677 5675 5672 5670 5667 5664 5661 5658 5655 5652 5648 5645 5642 5639 5637 5634 5631 5628 5624 5621 5617 5614 5611 5607 5604
5709 5708 5706 5705 5703 5702 5700 5697 5695 5693 5690 5688 5685 5682 5680 5678 5676 5674 5672 5670 5668 5666 5664 5661 5658 5656 5653 5650 5647 5645 5642 5640 5637 5634 5631 5628 5625 5622 5619 5616 5612 5609 5605
5706 5705 5703 5702 5700 5698 5695 5693 5691 5688 5686 5683 5680 5678 5675 5673 5671 5669 5667 5666 5664 5663 5661 5658 5656 5654 5652 5649 5647 5645 5643 5640 5638 5635 5632 5629 5626 5623 5620 5617 5613 5609 5606